| time (UTC) | temp C | wind direction | speed KPH | gust KPH | rain 1hr cm | rain 24hr cm | rain mn cm | humidity % | barometer mb |
| 20260831121354 | 20 | 292 | 11.3 | 24.1 | 0.00 | 2.16 | 0.08 | 71 | 1012.6 |
| 20260831115248 | 20 | 327 | 9.7 | 30.6 | 0.00 | 2.16 | 0.08 | 73 | 1012.3 |
| 20260831114248 | 20 | 275 | 3.2 | 19.3 | 0.00 | 2.16 | 0.08 | 75 | 1012.1 |
| 20260831113301 | 20 | 317 | 4.8 | 17.7 | 0.00 | 2.16 | 0.08 | 76 | 1012.1 |
| 20260831112259 | 20 | 229 | 6.4 | 17.7 | 0.00 | 2.16 | 0.08 | 77 | 1011.9 |
| 20260831111228 | 19 | 303 | 4.8 | 16.1 | 0.00 | 2.16 | 0.08 | 77 | 1011.6 |
| 20260831105043 | 18 | 305 | 6.4 | 14.5 | 0.00 | 2.18 | 0.08 | 78 | 1011.2 |
| 20260831104047 | 18 | 283 | 4.8 | 16.1 | 0.00 | 2.18 | 0.08 | 79 | 1011.3 |
| 20260831103111 | 18 | 313 | 8.0 | 16.1 | 0.00 | 2.18 | 0.08 | 80 | 1011.2 |
| 20260831102111 | 18 | 290 | 6.4 | 12.9 | 0.00 | 2.18 | 0.08 | 81 | 1011.1 |
| 20260831101128 | 18 | 300 | 6.4 | 12.9 | 0.00 | 2.18 | 0.08 | 81 | 1011.0 |
| 20260831100144 | 18 | 304 | 4.8 | 12.9 | 0.00 | 2.18 | 0.08 | 84 | 1010.8 |
| 20260831095128 | 17 | 261 | 4.8 | 12.9 | 0.00 | 2.18 | 0.08 | 86 | 1010.7 |
| 20260831094103 | 17 | 269 | 6.4 | 16.1 | 0.00 | 2.18 | 0.08 | 86 | 1010.4 |
| 20260831093046 | 17 | 246 | 4.8 | 16.1 | 0.00 | 2.18 | 0.08 | 87 | 1010.4 |
| 20260831092045 | 17 | 296 | 4.8 | 12.9 | 0.00 | 2.18 | 0.08 | 88 | 1010.3 |
| 20260831091030 | 17 | 231 | 4.8 | 20.9 | 0.00 | 2.18 | 0.08 | 90 | 1010.1 |
| 20260831084853 | 16 | 258 | 6.4 | 12.9 | 0.00 | 2.18 | 0.08 | 94 | 1009.7 |
| 20260831083902 | 16 | 246 | 3.2 | 12.9 | 0.00 | 2.18 | 0.08 | 96 | 1009.5 |
| 20260831082848 | 15 | 277 | 4.8 | 19.3 | 0.00 | 2.18 | 0.08 | 96 | 1009.2 |
| 20260831080709 | 15 | 280 | 3.2 | 8.0 | 0.00 | 2.18 | 0.08 | 97 | 1009.0 |
| 20260831075659 | 15 | 304 | 3.2 | 8.0 | 0.00 | 2.18 | 0.08 | 97 | 1008.9 |
| 20260831074626 | 15 | 262 | 3.2 | 9.7 | 0.00 | 2.18 | 0.08 | 97 | 1008.6 |
| 20260831073633 | 15 | 267 | 3.2 | 9.7 | 0.00 | 2.18 | 0.08 | 97 | 1008.4 |
| 20260831072622 | 14 | 250 | 1.6 | 4.8 | 0.00 | 2.18 | 0.08 | 98 | 1008.2 |
| 20260831071558 | 13 | 226 | 0.0 | 4.8 | 0.00 | 2.18 | 0.08 | 97 | 1008.0 |
| 20260831070604 | 13 | 227 | 0.0 | 0.0 | 0.00 | 2.18 | 0.08 | 98 | 1007.8 |
| 20260831064446 | 12 | 227 | 0.0 | 0.0 | 0.00 | 2.18 | 0.08 | 97 | 1007.5 |
| 20260831062331 | 11 | 227 | 0.0 | 1.6 | 0.00 | 2.18 | 0.08 | 97 | 1007.2 |
| 20260831061341 | 11 | 227 | 0.0 | 0.0 | 0.00 | 2.18 | 0.08 | 97 | 1007.1 |
| 20260831052843 | 11 | 227 | 0.0 | 3.2 | 0.00 | 2.18 | 0.08 | 97 | 1006.2 |
| 20260831050735 | 12 | 227 | 0.0 | 3.2 | 0.00 | 2.18 | 0.08 | 96 | 1005.8 |
| 20260831044700 | 12 | 227 | 0.0 | 1.6 | 0.00 | 2.16 | 0.08 | 97 | 1005.5 |
| 20260831043638 | 12 | 226 | 0.0 | 0.0 | 0.00 | 2.16 | 0.08 | 96 | 1005.4 |
| 20260831042634 | 12 | 226 | 0.0 | 3.2 | 0.00 | 2.16 | 0.08 | 96 | 1005.3 |
| 20260831041634 | 12 | 224 | 0.0 | 0.0 | 0.00 | 2.16 | 0.08 | 96 | 1005.3 |
| 20260831035555 | 12 | 224 | 0.0 | 0.0 | 0.00 | 2.16 | 0.08 | 96 | 1005.2 |
| 20260831034541 | 12 | 224 | 1.6 | 3.2 | 0.00 | 2.16 | 0.08 | 96 | 1005.2 |
| 20260831033538 | 11 | 224 | 0.0 | 3.2 | 0.00 | 2.16 | 0.08 | 96 | 1005.0 |
| 20260831032520 | 11 | 224 | 0.0 | 0.0 | 0.00 | 2.16 | 0.08 | 95 | 1005.0 |
| 20260831031458 | 11 | 224 | 0.0 | 0.0 | 0.00 | 2.16 | 0.08 | 96 | 1004.9 |
| 20260831030511 | 12 | 224 | 1.6 | 4.8 | 0.00 | 2.16 | 0.08 | 96 | 1004.8 |
| 20260831025505 | 11 | 224 | 0.0 | 4.8 | 0.00 | 2.16 | 0.08 | 96 | 1004.8 |
| 20260831024503 | 12 | 223 | 0.0 | 0.0 | 0.00 | 2.16 | 0.08 | 96 | 1004.6 |
| 20260831023506 | 12 | 223 | 0.0 | 3.2 | 0.00 | 2.16 | 0.08 | 96 | 1004.6 |
| 20260831022444 | 12 | 278 | 0.0 | 3.2 | 0.00 | 2.16 | 0.08 | 96 | 1004.5 |
| 20260831021423 | 12 | 278 | 0.0 | 0.0 | 0.00 | 2.16 | 0.08 | 96 | 1004.3 |
| 20260831020357 | 12 | 278 | 0.0 | 0.0 | 0.00 | 2.16 | 0.08 | 96 | 1004.1 |
| 20260831015325 | 12 | 278 | 0.0 | 0.0 | 0.00 | 2.16 | 0.08 | 96 | 1004.2 |
| 20260831014321 | 12 | 278 | 0.0 | 0.0 | 0.00 | 2.16 | 0.08 | 96 | 1004.2 |
| 20260831013343 | 12 | 278 | 0.0 | 0.0 | 0.00 | 2.16 | 0.08 | 96 | 1004.1 |
| 20260831012353 | 12 | 278 | 0.0 | 0.0 | 0.00 | 2.16 | 0.08 | 96 | 1004.1 |
| 20260831011411 | 12 | 278 | 0.0 | 0.0 | 0.00 | 2.16 | 0.08 | 96 | 1003.9 |
| 20260831010359 | 12 | 283 | 0.0 | 0.0 | 0.00 | 2.16 | 0.08 | 96 | 1003.8 |
| 20260831005336 | 12 | 302 | 0.0 | 0.0 | 0.00 | 2.16 | 0.08 | 96 | 1003.7 |
| 20260831004303 | 12 | 302 | 0.0 | 0.0 | 0.00 | 2.16 | 0.08 | 96 | 1003.4 |
| 20260831003232 | 12 | 302 | 0.0 | 0.0 | 0.00 | 2.16 | 0.08 | 96 | 1003.3 |
| 20260831002237 | 12 | 302 | 0.0 | 0.0 | 0.00 | 2.16 | 0.08 | 95 | 1003.4 |
| 20260831001259 | 12 | 302 | 0.0 | 0.0 | 0.00 | 2.16 | 0.08 | 95 | 1003.4 |
| 20260831000314 | 12 | 302 | 0.0 | 0.0 | 0.00 | 2.16 | 0.05 | 95 | 1003.4 |
| 20260830234124 | 12 | 302 | 0.0 | 0.0 | 0.00 | 2.13 | 0.03 | 95 | 1003.1 |
| 20260830233142 | 12 | 302 | 0.0 | 0.0 | 0.00 | 2.13 | 0.03 | 95 | 1003.2 |
| 20260830232139 | 12 | 302 | 0.0 | 0.0 | 0.08 | 2.13 | 0.03 | 95 | 1003.4 |
| 20260830231140 | 12 | 302 | 0.0 | 0.0 | 0.10 | 2.08 | 0.00 | 95 | 1003.1 |
| 20260830230112 | 12 | 275 | 0.0 | 0.0 | 0.61 | 2.08 | 0.00 | 95 | 1003.4 |
| 20260830225042 | 12 | 276 | 0.0 | 1.6 | 0.48 | 2.01 | 2.01 | 94 | 1003.5 |
| 20260830224028 | 13 | 276 | 3.2 | 12.9 | 2.11 | 1.78 | 1.80 | 94 | 1003.7 |
| 20260830223025 | 14 | 298 | 1.6 | 11.3 | 0.18 | 1.40 | 1.40 | 94 | 1003.4 |
| 20260830220859 | 15 | 277 | 0.0 | 0.0 | 0.30 | 1.37 | 1.37 | 95 | 1003.1 |
| 20260830215843 | 14 | 277 | 0.0 | 0.0 | 0.00 | 1.30 | 1.30 | 95 | 1003.3 |
| 20260830214906 | 14 | 277 | 0.0 | 0.0 | 0.00 | 1.30 | 1.30 | 95 | 1003.3 |
| 20260830213908 | 14 | 277 | 0.0 | 0.0 | 0.00 | 1.30 | 1.30 | 95 | 1003.4 |
| 20260830212915 | 14 | 277 | 0.0 | 0.0 | 0.00 | 1.30 | 1.30 | 95 | 1003.3 |
| 20260830211854 | 14 | 277 | 0.0 | 0.0 | 0.00 | 1.30 | 1.30 | 95 | 1003.4 |
| 20260830210844 | 14 | 277 | 0.0 | 0.0 | 0.00 | 1.30 | 1.30 | 95 | 1003.4 |
| 20260830204716 | 14 | 14 | 0.0 | 0.0 | 0.00 | 1.30 | 1.30 | 94 | 1003.3 |
| 20260830203722 | 14 | 15 | 0.0 | 0.0 | 0.00 | 1.30 | 1.30 | 94 | 1003.4 |
| 20260830202743 | 15 | 263 | 0.0 | 4.8 | 0.00 | 1.30 | 1.30 | 94 | 1003.5 |
| 20260830201747 | 15 | 313 | 0.0 | 0.0 | 0.00 | 1.30 | 1.30 | 94 | 1003.5 |
| 20260830200803 | 15 | 295 | 0.0 | 1.6 | 0.00 | 1.40 | 1.30 | 94 | 1003.5 |
| 20260830195802 | 15 | 192 | 1.6 | 8.0 | 0.00 | 1.42 | 1.30 | 94 | 1003.5 |
| 20260830194755 | 15 | 310 | 0.0 | 3.2 | 0.00 | 1.45 | 1.30 | 94 | 1003.4 |
| 20260830192610 | 15 | 276 | 0.0 | 0.0 | 0.28 | 1.45 | 1.30 | 94 | 1003.3 |
| 20260830191607 | 15 | 351 | 0.0 | 4.8 | 0.25 | 1.40 | 1.24 | 94 | 1003.3 |
| 20260830190532 | 16 | 259 | 0.0 | 9.7 | 0.18 | 1.35 | 1.19 | 93 | 1003.3 |
| 20260830185520 | 16 | 229 | 1.6 | 9.7 | 0.30 | 1.30 | 1.14 | 93 | 1003.3 |
| 20260830175954 | 16 | 59 | 0.0 | 3.2 | 0.08 | 0.91 | 0.74 | 93 | 1004.1 |
| 20260830174953 | 16 | 153 | 0.0 | 0.0 | 0.00 | 0.91 | 0.74 | 93 | 1003.9 |
| 20260830173935 | 16 | 153 | 0.0 | 0.0 | 0.00 | 0.89 | 0.74 | 92 | 1004.0 |
| 20260830171756 | 17 | 165 | 0.0 | 0.0 | 0.00 | 0.89 | 0.74 | 93 | 1004.2 |
| 20260830165653 | 17 | 215 | 0.0 | 3.2 | 0.00 | 0.89 | 0.74 | 92 | 1004.4 |
| 20260830164648 | 17 | 290 | 0.0 | 6.4 | 0.00 | 0.89 | 0.74 | 92 | 1004.4 |
| 20260830162459 | 17 | 234 | 0.0 | 0.0 | 0.00 | 0.89 | 0.74 | 92 | 1004.7 |
| 20260830161521 | 17 | 234 | 0.0 | 0.0 | 0.00 | 0.89 | 0.74 | 91 | 1004.7 |
| 20260830160533 | 17 | 234 | 0.0 | 0.0 | 0.10 | 0.89 | 0.74 | 90 | 1004.8 |
| 20260830155529 | 17 | 234 | 0.0 | 0.0 | 2.54 | 0.79 | 0.69 | 90 | 1005.0 |
| 20260830153354 | 17 | 220 | 0.0 | 0.0 | 0.08 | 0.61 | 0.46 | 87 | 1005.0 |
| 20260830151210 | 19 | 314 | 3.2 | 14.5 | 2.06 | 0.36 | 0.23 | 81 | 1005.1 |
| 20260830150208 | 19 | 181 | 1.6 | 9.7 | 0.00 | 0.18 | 0.03 | 78 | 1004.6 |
| 20260830145204 | 20 | 349 | 1.6 | 12.9 | 0.00 | 0.18 | 0.03 | 78 | 1004.6 |
| 20260830144215 | 20 | 321 | 3.2 | 12.9 | 0.00 | 0.18 | 0.03 | 79 | 1004.8 |
| 20260830143210 | 20 | 221 | 3.2 | 11.3 | 0.00 | 0.18 | 0.03 | 80 | 1005.0 |
| 20260830142232 | 19 | 111 | 1.6 | 14.5 | 0.00 | 0.18 | 0.03 | 81 | 1005.1 |
| 20260830141158 | 19 | 15 | 1.6 | 16.1 | 0.00 | 0.18 | 0.03 | 82 | 1005.5 |
| 20260830140136 | 19 | 328 | 1.6 | 16.1 | 0.00 | 0.18 | 0.03 | 83 | 1005.5 |
| 20260830134025 | 18 | 106 | 0.0 | 12.9 | 0.00 | 0.18 | 0.03 | 85 | 1005.7 |
| 20260830133039 | 18 | 12 | 1.6 | 12.9 | 0.00 | 0.18 | 0.03 | 85 | 1005.8 |
| 20260830132055 | 18 | 255 | 3.2 | 11.3 | 0.00 | 0.18 | 0.03 | 84 | 1006.1 |
| 20260830131044 | 18 | 218 | 8.0 | 17.7 | 0.00 | 0.18 | 0.00 | 79 | 1006.4 |
| 20260830130017 | 20 | 290 | 4.8 | 17.7 | 0.00 | 0.18 | 0.00 | 71 | 1006.1 |
| 20260830125028 | 20 | 221 | 4.8 | 17.7 | 0.00 | 0.20 | 0.00 | 70 | 1006.0 |
| 20260830124033 | 21 | 210 | 4.8 | 17.7 | 0.00 | 0.25 | 0.00 | 68 | 1005.9 |
| 20260830123024 | 21 | 158 | 4.8 | 16.1 | 0.00 | 0.28 | 0.00 | 70 | 1005.9 |